Tracking 30744 objects as of 24-Jun-2025
HD Live streaming from Space Station
objects crossing your sky now

FENGYUN 1C DEB

Track FENGYUN 1C DEB now!
10-day predictions


NORAD ID: 41832
Int'l Code: 1999-025EYK
Perigee: 783.4 km
Apogee: 862.1 km
Inclination: 98.7 °
Period: 101.2 minutes
Semi major axis: 7193 km
RCS: Unknown
Launch date: May 10, 1999
Source: People's Republic of China (PRC)
Launch site: Taiyaun Space Center, China (TSC)

Note: This is SATELLITE DEBRIS
Your satellite tracking list
Your tracking list is empty




NASA's NSSDC Master Catalog

Two Line Element Set (TLE):
1 41832U 99025EYK 25174.63983559  .00001853  00000-0  83143-3 0  9999
2 41832  98.7402 239.9014 0054704   7.2758 352.9202 14.22884843449023
Source of the keplerian elements: AFSPC